User: anonymous   Login
Location: Unspecified
(0.0000°N, 0.0000°E)
Time: 17:11:56
(UTC+02:00)
Language:

PSLV R/B - Orbit

View from above orbital plane
View from above orbital plane
View from above satellite
View from above satellite

Ground track
Ground track

The orbit data is extracted from the following two-line orbital elements,

1 29713U 07001E   15245.53299548  .00000651  00000-0  83443-4 0  9990
2 29713  97.6836 227.2029 0027174  82.7472 277.6830 14.84268229467071
Epoch (UTC): 02 September 2015 12:47:30
Eccentricity: 0.0027174
inclination: 97.6836°
perigee height: 597 km
apogee height: 635 km
right ascension of ascending node: 227.2029°
argument of perigee: 82.7472°
revolutions per day: 14.84268229
mean anomaly at epoch: 277.6830°
orbit number at epoch: 46707

The dashed part of the orbit path shows where the satellite is in the earth's shadow,  

DLR